Quillayute, WA
on Tuesday, November 6, 2012

Tuesday
Previous Day Next Day
Daily Summary
 ActualAverageRecord
Temperature
Mean Temperature °F 46°F  
Max Temperature 55°F 52°F 61°F (1967)
Min Temperature 45°F 40°F 28°F (2003)
Degree Days
Heating Degree Days 15 19  
Month to date heating degree days 112  
Since 1 July heating degree days 1202  
Cooling Degree Days 0 0  
Month to date cooling degree days 0  
Year to date cooling degree days 19  
Moisture
Dew Point 48°F   
Average Humidity 88    
Maximum Humidity 94    
Minimum Humidity 73    
Precipitation
Precipitation 0.26 in 0.50 in 3.30 in (2008)
Month to date precipitation 2.90  
Year to date precipitation 73.93  
Wind
Wind Speed 6 mph   
Max Wind Speed 18 mph   
Max Gust Speed 30 mph   
Visibility 3 miles   
Events Fog , Rain   

Key: T is trace of precipitation, MM is missing value
Source: NWS Daily Summary
Time(PST)TemperatureDew PointHumidity Pressure Visibility Wind DirectionWind SpeedGust SpeedPrecipitationEvents Conditions
12:53 AM 46.0°F 43.0°F 89% 30.13 in 5.0 miles Calm Calm - N/A   Overcast
1:53 AM 46.9°F 43.0°F 86% 30.11 in 5.0 miles Calm Calm - N/A   Overcast
2:53 AM 46.0°F 44.1°F 93% 30.09 in 5.0 miles Calm Calm - N/A   Overcast
3:53 AM 46.9°F 43.0°F 86% 30.06 in 6.0 miles Calm Calm - N/A   Overcast
4:53 AM 46.9°F 44.1°F 90% 30.04 in 5.0 miles East 3.5 mph - N/A   Overcast
5:53 AM 46.9°F 43.0°F 86% 30.02 in 6.0 miles East 4.6 mph - N/A   Mostly Cloudy
6:53 AM 46.9°F 43.0°F 86% 30.01 in 6.0 miles East 3.5 mph - N/A   Overcast
7:53 AM 48.0°F 44.1°F 86% 29.98 in 4.0 miles East 5.8 mph - N/A   Overcast
8:53 AM 48.9°F 45.0°F 86% 29.99 in 4.0 miles NW 9.2 mph - N/A   Overcast
9:53 AM 53.1°F 46.9°F 80% 29.99 in 4.0 miles Calm Calm - N/A   Haze
10:41 AM 51.8°F 46.4°F 82% 29.96 in 2.0 miles ESE 5.8 mph - 0.01 in Rain Rain
10:51 AM 51.8°F 48.2°F 88% 29.96 in 1.5 miles Calm Calm - 0.02 in Rain Light Rain
10:53 AM 52.0°F 48.9°F 89% 29.97 in 1.5 miles Variable 3.5 mph - 0.02 in Rain Light Rain
11:04 AM 53.6°F 48.2°F 82% 29.97 in 2.0 miles Variable 3.5 mph - 0.01 in Rain Light Rain
11:16 AM 53.6°F 48.2°F 82% 29.97 in 1.5 miles Variable 4.6 mph - 0.02 in Rain Light Rain
11:49 AM 53.6°F 48.2°F 82% 29.92 in 2.5 miles SE 13.8 mph 24.2 mph 0.06 in Rain Light Rain
11:53 AM 53.1°F 48.9°F 86% 29.92 in 2.5 miles SE 15.0 mph 25.3 mph 0.06 in Rain Light Rain
12:02 PM 53.6°F 50.0°F 88% 29.94 in 3.0 miles South 8.1 mph 20.7 mph 0.00 in Rain Light Rain
12:51 PM 53.6°F 48.2°F 82% 29.90 in 4.0 miles SSE 12.7 mph 27.6 mph 0.00 in Rain Light Rain
12:53 PM 53.1°F 48.9°F 86% 29.92 in 4.0 miles SSW 10.4 mph 27.6 mph 0.00 in Rain Light Rain
1:10 PM 53.6°F 51.8°F 94% 29.94 in 2.0 miles South 12.7 mph 20.7 mph 0.00 in Rain Light Rain
1:21 PM 53.6°F 51.8°F 94% 29.93 in 1.5 miles Variable 6.9 mph 21.9 mph 0.00 in Rain Light Rain
1:42 PM 53.6°F 51.8°F 94% 29.91 in 2.5 miles SSE 11.5 mph 24.2 mph 0.01 in   Overcast
1:53 PM 54.0°F 51.1°F 90% 29.91 in 3.0 miles South 9.2 mph 19.6 mph 0.01 in   Overcast
2:01 PM 53.6°F 51.8°F 94% 29.91 in 3.0 miles South 9.2 mph 23.0 mph N/A   Overcast
2:26 PM 55.4°F 51.8°F 88% 29.91 in 2.5 miles South 12.7 mph 21.9 mph N/A   Overcast
2:33 PM 55.4°F 51.8°F 88% 29.91 in 2.0 miles South 9.2 mph 21.9 mph N/A   Overcast
2:37 PM 53.6°F 51.8°F 94% 29.91 in 1.8 miles South 12.7 mph 19.6 mph 0.00 in Rain Light Rain
2:46 PM 53.6°F 51.8°F 94% 29.91 in 2.0 miles South 15.0 mph 28.8 mph 0.00 in   Overcast
2:49 PM 53.6°F 51.8°F 94% 29.91 in 1.5 miles South 13.8 mph 28.8 mph 0.00 in Rain Light Rain
2:51 PM 53.6°F 51.8°F 94% 29.91 in 1.2 miles South 13.8 mph 28.8 mph 0.00 in Rain Light Rain
2:53 PM 54.0°F 51.1°F 90% 29.91 in 1.0 miles South 16.1 mph 29.9 mph 0.00 in Rain Light Rain
2:57 PM 53.6°F 51.8°F 94% 29.91 in 0.5 miles South 12.7 mph 29.9 mph 0.00 in Fog , Rain Light Rain
3:17 PM 53.6°F 51.8°F 94% 29.91 in 1.2 miles South 16.1 mph 26.5 mph 0.00 in Rain Light Rain
3:28 PM 53.6°F 51.8°F 94% 29.92 in 1.8 miles South 13.8 mph 21.9 mph 0.00 in Rain Light Rain
3:41 PM 53.6°F 51.8°F 94% 29.93 in 0.8 miles SSW 10.4 mph 19.6 mph 0.00 in Rain Light Rain
3:53 PM 54.0°F 51.1°F 90% 29.94 in 1.2 miles SW 10.4 mph - 0.02 in Rain Light Rain
3:55 PM 53.6°F 51.8°F 94% 29.94 in 2.0 miles WSW 13.8 mph 21.9 mph 0.00 in Rain Light Rain
4:04 PM 53.6°F 50.0°F 88% 29.94 in 4.0 miles West 11.5 mph 23.0 mph 0.00 in   Overcast
4:11 PM 53.6°F 50.0°F 88% 29.95 in 4.0 miles WSW 15.0 mph 21.9 mph 0.00 in   Overcast
4:38 PM 53.6°F 48.2°F 82% 29.96 in 4.0 miles WSW 12.7 mph - 0.00 in   Overcast
4:53 PM 52.0°F 48.0°F 86% 29.97 in 4.0 miles West 10.4 mph 18.4 mph 0.00 in   Overcast
5:53 PM 51.1°F 46.9°F 86% 29.99 in 5.0 miles West 6.9 mph - N/A   Overcast
6:53 PM 51.1°F 46.9°F 86% 30.00 in 5.0 miles WSW 8.1 mph - 0.00 in   Overcast
7:12 PM 51.8°F 46.4°F 82% 30.01 in 2.5 miles WSW 11.5 mph - 0.00 in Rain Light Rain
7:16 PM 51.8°F 46.4°F 82% 30.01 in 1.8 miles West 13.8 mph - 0.01 in Rain Rain
7:21 PM 50.0°F 46.4°F 87% 30.01 in 0.8 miles West 12.7 mph 23.0 mph 0.07 in Rain Heavy Rain
7:30 PM 50.0°F 46.4°F 87% 30.01 in 1.8 miles West 8.1 mph - 0.13 in Rain Light Rain
7:32 PM 50.0°F 46.4°F 87% 30.01 in 3.0 miles West 9.2 mph - 0.13 in Rain Light Rain
7:53 PM 50.0°F 46.0°F 86% 30.02 in 5.0 miles West 9.2 mph - 0.13 in   Mostly Cloudy
8:53 PM 48.9°F 44.1°F 83% 30.03 in 5.0 miles West 8.1 mph - N/A   Haze
9:25 PM 48.2°F 42.8°F 82% 30.04 in 2.5 miles SSW 6.9 mph - 0.01 in Rain Light Rain
9:32 PM 46.4°F 42.8°F 87% 30.04 in 5.0 miles SW 4.6 mph - 0.01 in Rain Light Rain
9:53 PM 46.0°F 42.1°F 86% 30.05 in 5.0 miles Calm Calm - 0.01 in   Overcast
10:53 PM 46.0°F 43.0°F 89% 30.06 in 4.0 miles Calm Calm - N/A   Overcast
11:53 PM 45.0°F 43.0°F 93% 30.06 in 5.0 miles ESE 3.5 mph - 0.01 in   Overcast
Moon Phase
Nov. 06 Nov. 06 Nov. 13 Nov. 20 Nov. 28
Sunrise:07:11 AM (PST) Moon Rise:11:42 PM (PST)11/6
Sunset:04:51 PM (PST) Moon Set:01:02 PM (PST)11/6

Copyright © 2014 The Weather Underground, Inc.